BNZ570 YMAV-YBSU

Flight info

Callsign BNZ570
Flight time 2h 3m
Altitude 39000
Route ML DCT NONIX H66 IDNER W214 GOMOL Q69 ITIDE
Aircraft B38M/M-SDE1FGHILORVWXY/HB1

Departure

Time 2026-05-06 22:22
Airport Melbourne Avalon International Airport (YMAV)

Arrival

Time 2026-05-07 00:25
Airport Sunshine Coast Airport (YBSU)
Time Latitude Longitude Altitude Speed Heading
2026-05-06 21:45 -38.02720 144.47267 34 ft 0 kts
2026-05-06 22:11 -38.02729 144.47265 34 ft 4 kts
2026-05-06 22:11 -38.02751 144.47261 34 ft 4 kts 14°
2026-05-06 22:11 -38.02770 144.47243 34 ft 4 kts 60°
2026-05-06 22:12 -38.02780 144.47219 34 ft 1 kts 63°
2026-05-06 22:12 -38.02782 144.47215 34 ft 0 kts 63°
2026-05-06 22:15 -38.02781 144.47218 34 ft 1 kts 65°
2026-05-06 22:15 -38.02787 144.47252 34 ft 8 kts 109°
2026-05-06 22:15 -38.02805 144.47343 35 ft 9 kts 120°
2026-05-06 22:16 -38.02862 144.47362 35 ft 10 kts 185°
2026-05-06 22:16 -38.02941 144.47349 35 ft 13 kts 186°
2026-05-06 22:16 -38.03040 144.47332 35 ft 16 kts 189°
2026-05-06 22:16 -38.03149 144.47284 35 ft 18 kts 213°
2026-05-06 22:17 -38.03224 144.47174 35 ft 15 kts 237°
2026-05-06 22:17 -38.03293 144.47081 36 ft 15 kts 214°
2026-05-06 22:17 -38.03394 144.47043 36 ft 16 kts 187°
2026-05-06 22:17 -38.03510 144.47024 36 ft 17 kts 187°
2026-05-06 22:18 -38.03637 144.47003 36 ft 19 kts 188°
2026-05-06 22:18 -38.03779 144.46978 36 ft 22 kts 187°
2026-05-06 22:18 -38.03936 144.46952 36 ft 24 kts 188°
2026-05-06 22:18 -38.04102 144.46924 36 ft 21 kts 187°
2026-05-06 22:19 -38.04253 144.46898 36 ft 23 kts 187°
2026-05-06 22:19 -38.04414 144.46871 36 ft 23 kts 188°
2026-05-06 22:19 -38.04572 144.46845 37 ft 23 kts 187°
2026-05-06 22:19 -38.04734 144.46818 37 ft 24 kts 187°
2026-05-06 22:20 -38.04908 144.46788 37 ft 26 kts 187°
2026-05-06 22:20 -38.05078 144.46760 38 ft 24 kts 188°
2026-05-06 22:20 -38.05249 144.46731 38 ft 24 kts 187°
2026-05-06 22:20 -38.05380 144.46705 37 ft 16 kts 199°
2026-05-06 22:21 -38.05438 144.46638 37 ft 4 kts 250°
2026-05-06 22:21 -38.05442 144.46593 36 ft 6 kts 271°
2026-05-06 22:21 -38.05438 144.46533 38 ft 7 kts 276°
2026-05-06 22:21 -38.05414 144.46488 38 ft 7 kts 351°
2026-05-06 22:22 -38.05355 144.46497 38 ft 14 kts
2026-05-06 22:22 -38.04994 144.46558 37 ft 95 kts
2026-05-06 22:22 -38.04091 144.46715 65 ft 161 kts
2026-05-06 22:22 -38.02939 144.46957 764 ft 172 kts
2026-05-06 22:23 -38.01770 144.47132 1783 ft 168 kts
2026-05-06 22:23 -38.00532 144.47373 2372 ft 193 kts 13°
2026-05-06 22:23 -37.99272 144.48239 2895 ft 226 kts 40°
2026-05-06 22:23 -37.98244 144.49801 3849 ft 228 kts 52°
2026-05-06 22:24 -37.97238 144.51387 4869 ft 235 kts 52°
2026-05-06 22:24 -37.96187 144.53009 5867 ft 239 kts 52°
2026-05-06 22:24 -37.95122 144.54642 6873 ft 243 kts 51°
2026-05-06 22:24 -37.94032 144.56297 7847 ft 246 kts 51°
2026-05-06 22:25 -37.92824 144.57897 8639 ft 260 kts 40°
2026-05-06 22:25 -37.91338 144.59347 9254 ft 280 kts 38°
2026-05-06 22:25 -37.89744 144.60900 9882 ft 298 kts 38°
2026-05-06 22:25 -37.88073 144.62537 10698 ft 307 kts 38°
2026-05-06 22:26 -37.86341 144.64239 11358 ft 323 kts 38°
2026-05-06 22:26 -37.84536 144.66014 12116 ft 333 kts 38°
2026-05-06 22:26 -37.82705 144.67817 13079 ft 335 kts 38°
2026-05-06 22:26 -37.80866 144.69627 13960 ft 339 kts 38°
2026-05-06 22:27 -37.78995 144.71468 14844 ft 343 kts 38°
2026-05-06 22:27 -37.77100 144.73330 15681 ft 346 kts 38°
2026-05-06 22:27 -37.75183 144.75213 16456 ft 351 kts 38°
2026-05-06 22:27 -37.73243 144.77117 17226 ft 355 kts 38°
2026-05-06 22:28 -37.71304 144.79021 17946 ft 359 kts 38°
2026-05-06 22:28 -37.69330 144.80954 18675 ft 364 kts 38°
2026-05-06 22:28 -37.67314 144.82928 19398 ft 368 kts 38°
2026-05-06 22:28 -37.65201 144.84785 20007 ft 373 kts 28°
2026-05-06 22:29 -37.62903 144.86364 20606 ft 380 kts 30°
2026-05-06 22:29 -37.60579 144.87996 21262 ft 385 kts 29°
2026-05-06 22:29 -37.58217 144.89649 21896 ft 390 kts 29°
2026-05-06 22:29 -37.55830 144.91320 22527 ft 394 kts 30°
2026-05-06 22:30 -37.53416 144.93011 23093 ft 402 kts 29°
2026-05-06 22:30 -37.50972 144.94709 23730 ft 400 kts 29°
2026-05-06 22:30 -37.48521 144.96418 24195 ft 408 kts 29°
2026-05-06 22:30 -37.46011 144.98158 24719 ft 411 kts 29°
2026-05-06 22:31 -37.43499 144.99903 25282 ft 415 kts 29°
2026-05-06 22:31 -37.40950 145.01677 25868 ft 419 kts 29°
2026-05-06 22:31 -37.38385 145.03459 26459 ft 422 kts 29°
2026-05-06 22:31 -37.35834 145.05235 27001 ft 425 kts 28°
2026-05-06 22:32 -37.33201 145.07053 27488 ft 429 kts 28°
2026-05-06 22:32 -37.30591 145.08859 27916 ft 429 kts 28°
2026-05-06 22:32 -37.27952 145.10687 28265 ft 437 kts 28°
2026-05-06 22:32 -37.25316 145.12529 28832 ft 434 kts 28°
2026-05-06 22:33 -37.22669 145.14348 29118 ft 442 kts 28°
2026-05-06 22:33 -37.19949 145.16222 29708 ft 439 kts 27°
2026-05-06 22:33 -37.17271 145.18056 30014 ft 449 kts 27°
2026-05-06 22:33 -37.14545 145.19936 30543 ft 447 kts 28°
2026-05-06 22:34 -37.11807 145.21826 30903 ft 452 kts 27°
2026-05-06 22:34 -37.09012 145.23750 31341 ft 452 kts 27°
2026-05-06 22:34 -37.06376 145.25890 31643 ft 456 kts 38°
2026-05-06 22:34 -37.04033 145.28508 32054 ft 455 kts 40°
2026-05-06 22:35 -37.01589 145.31005 32394 ft 453 kts 38°
2026-05-06 22:35 -36.99111 145.33531 32484 ft 464 kts 38°
2026-05-06 22:35 -36.96618 145.36095 32923 ft 465 kts 38°
2026-05-06 22:35 -36.94117 145.38671 33245 ft 467 kts 38°
2026-05-06 22:36 -36.91601 145.41264 33561 ft 470 kts 38°
2026-05-06 22:36 -36.89072 145.43869 33878 ft 472 kts 38°
2026-05-06 22:36 -36.86533 145.46482 34174 ft 474 kts 38°
2026-05-06 22:36 -36.83982 145.49107 34452 ft 477 kts 38°
2026-05-06 22:37 -36.81418 145.51740 34769 ft 479 kts 37°
2026-05-06 22:37 -36.78838 145.54388 35067 ft 481 kts 37°
2026-05-06 22:37 -36.76250 145.57042 35349 ft 483 kts 37°
2026-05-06 22:37 -36.73653 145.59703 35683 ft 483 kts 37°
2026-05-06 22:38 -36.71057 145.62360 36032 ft 483 kts 37°
2026-05-06 22:38 -36.68459 145.65017 36376 ft 483 kts 37°
2026-05-06 22:38 -36.65863 145.67670 36687 ft 483 kts 37°
2026-05-06 22:38 -36.63267 145.70319 36995 ft 482 kts 37°
2026-05-06 22:39 -36.60675 145.72964 37320 ft 481 kts 37°
2026-05-06 22:39 -36.58089 145.75598 37639 ft 480 kts 37°
2026-05-06 22:39 -36.55505 145.78229 37952 ft 479 kts 37°
2026-05-06 22:39 -36.52929 145.80850 38262 ft 478 kts 37°
2026-05-06 22:40 -36.50356 145.83464 38557 ft 477 kts 37°
2026-05-06 22:40 -36.47786 145.86074 38825 ft 477 kts 37°
2026-05-06 22:40 -36.45184 145.88714 39060 ft 477 kts 37°
2026-05-06 22:40 -36.42647 145.91285 39192 ft 478 kts 36°
2026-05-06 22:41 -36.34943 145.99081 39187 ft 475 kts 36°
2026-05-06 22:42 -36.29812 146.04260 39184 ft 475 kts 36°
2026-05-06 22:42 -36.24681 146.09432 39192 ft 475 kts 36°
2026-05-06 22:43 -36.19548 146.14596 39184 ft 476 kts 36°
2026-05-06 22:43 -36.14408 146.19758 39184 ft 476 kts 36°
2026-05-06 22:44 -36.09266 146.24914 39181 ft 476 kts 36°
2026-05-06 22:44 -36.04124 146.30060 39172 ft 475 kts 36°
2026-05-06 22:45 -35.98985 146.35195 39174 ft 476 kts 36°
2026-05-06 22:45 -35.93845 146.40321 39175 ft 475 kts 36°
2026-05-06 22:46 -35.88729 146.45415 39168 ft 475 kts 36°
2026-05-06 22:46 -35.83589 146.50524 39166 ft 474 kts 36°
2026-05-06 22:47 -35.78455 146.55618 39165 ft 474 kts 36°
2026-05-06 22:47 -35.73317 146.60707 39166 ft 473 kts 35°
2026-05-06 22:48 -35.68186 146.65781 39167 ft 473 kts 35°
2026-05-06 22:48 -35.63060 146.70842 39165 ft 472 kts 35°
2026-05-06 22:49 -35.58816 146.75025 39167 ft 472 kts 35°
2026-05-06 22:49 -35.53683 146.80079 39166 ft 471 kts 35°
2026-05-06 22:50 -35.48568 146.85107 39166 ft 471 kts 35°
2026-05-06 22:50 -35.43445 146.90128 39165 ft 471 kts 35°
2026-05-06 22:51 -35.38330 146.95134 39164 ft 470 kts 34°
2026-05-06 22:51 -35.33219 147.00129 39160 ft 470 kts 34°
2026-05-06 22:52 -35.28105 147.05119 39154 ft 470 kts 34°
2026-05-06 22:52 -35.22995 147.10097 39156 ft 469 kts 34°
2026-05-06 22:53 -35.17890 147.15062 39157 ft 469 kts 34°
2026-05-06 22:53 -35.12780 147.20023 39154 ft 469 kts 34°
2026-05-06 22:54 -35.07669 147.24977 39155 ft 469 kts 34°
2026-05-06 22:54 -35.02564 147.29917 39153 ft 468 kts 34°
2026-05-06 22:55 -34.97460 147.34848 39147 ft 468 kts 34°
2026-05-06 22:55 -34.92350 147.39777 39156 ft 468 kts 34°
2026-05-06 22:56 -34.87240 147.44697 39153 ft 468 kts 34°
2026-05-06 22:56 -34.82132 147.49609 39156 ft 468 kts 34°
2026-05-06 22:57 -34.77017 147.54517 39156 ft 468 kts 34°
2026-05-06 22:57 -34.71938 147.59385 39151 ft 468 kts 34°
2026-05-06 22:58 -34.66827 147.64275 39145 ft 468 kts 33°
2026-05-06 22:58 -34.61710 147.69162 39147 ft 468 kts 34°
2026-05-06 22:59 -34.56593 147.74042 39145 ft 468 kts 33°
2026-05-06 22:59 -34.51478 147.78912 39140 ft 467 kts 33°
2026-05-06 23:00 -34.46361 147.83776 39134 ft 467 kts 33°
2026-05-06 23:00 -34.41241 147.88635 39139 ft 467 kts 33°
2026-05-06 23:01 -34.36121 147.93487 39137 ft 467 kts 33°
2026-05-06 23:01 -34.30998 147.98334 39127 ft 467 kts 33°
2026-05-06 23:02 -34.25879 148.03168 39127 ft 467 kts 33°
2026-05-06 23:02 -34.20750 148.08005 39126 ft 467 kts 33°
2026-05-06 23:03 -34.15660 148.12798 39123 ft 467 kts 33°
2026-05-06 23:03 -34.10534 148.17616 39127 ft 467 kts 33°
2026-05-06 23:04 -34.05403 148.22432 39128 ft 467 kts 33°
2026-05-06 23:04 -34.00276 148.27237 39125 ft 467 kts 33°
2026-05-06 23:05 -33.95142 148.32041 39133 ft 467 kts 33°
2026-05-06 23:05 -33.90015 148.36829 39125 ft 466 kts 33°
2026-05-06 23:06 -33.84887 148.41613 39126 ft 466 kts 33°
2026-05-06 23:06 -33.79760 148.46387 39128 ft 466 kts 33°
2026-05-06 23:07 -33.74637 148.51151 39133 ft 465 kts 33°
2026-05-06 23:07 -33.69512 148.55907 39136 ft 465 kts 33°
2026-05-06 23:08 -33.64393 148.60654 39135 ft 465 kts 32°
2026-05-06 23:08 -33.59278 148.65388 39127 ft 465 kts 32°
2026-05-06 23:09 -33.54166 148.70111 39125 ft 464 kts 32°
2026-05-06 23:09 -33.49057 148.74825 39128 ft 464 kts 32°
2026-05-06 23:10 -33.43943 148.79536 39128 ft 463 kts 32°
2026-05-06 23:10 -33.38840 148.84230 39136 ft 463 kts 32°
2026-05-06 23:11 -33.33734 148.88920 39136 ft 463 kts 32°
2026-05-06 23:11 -33.28627 148.93603 39137 ft 462 kts 32°
2026-05-06 23:12 -33.23526 148.98274 39138 ft 462 kts 32°
2026-05-06 23:12 -33.18460 149.02905 39140 ft 461 kts 32°
2026-05-06 23:13 -33.13362 149.07559 39136 ft 461 kts 32°
2026-05-06 23:13 -33.08261 149.12210 39134 ft 461 kts 32°
2026-05-06 23:14 -33.03158 149.16854 39136 ft 461 kts 32°
2026-05-06 23:14 -32.98064 149.21484 39144 ft 461 kts 32°
2026-05-06 23:15 -32.92969 149.26108 39129 ft 460 kts 32°
2026-05-06 23:15 -32.87873 149.30725 39128 ft 460 kts 32°
2026-05-06 23:16 -32.82779 149.35334 39129 ft 460 kts 32°
2026-05-06 23:16 -32.77682 149.39941 39127 ft 460 kts 32°
2026-05-06 23:17 -32.72589 149.44538 39126 ft 460 kts 32°
2026-05-06 23:17 -32.67495 149.49128 39136 ft 460 kts 32°
2026-05-06 23:18 -32.62397 149.53715 39131 ft 460 kts 32°
2026-05-06 23:18 -32.57311 149.58285 39136 ft 459 kts 31°
2026-05-06 23:19 -32.52118 149.62660 39140 ft 458 kts 30°
2026-05-06 23:19 -32.46927 149.67032 39138 ft 458 kts 30°
2026-05-06 23:20 -32.41821 149.71334 39121 ft 457 kts 30°
2026-05-06 23:20 -32.36548 149.75770 39132 ft 458 kts 30°
2026-05-06 23:21 -32.31361 149.80127 39125 ft 457 kts 30°
2026-05-06 23:21 -32.26172 149.84480 39133 ft 457 kts 30°
2026-05-06 23:22 -32.20998 149.88814 39130 ft 457 kts 30°
2026-05-06 23:22 -32.15809 149.93155 39133 ft 457 kts 30°
2026-05-06 23:23 -32.10616 149.97492 39139 ft 457 kts 30°
2026-05-06 23:23 -32.05422 150.01825 39134 ft 457 kts 30°
2026-05-06 23:24 -32.00228 150.06150 39136 ft 457 kts 30°
2026-05-06 23:24 -31.95071 150.10440 39140 ft 457 kts 30°
2026-05-06 23:25 -31.89844 150.14780 39138 ft 457 kts 30°
2026-05-06 23:25 -31.84683 150.19062 39142 ft 457 kts 30°
2026-05-06 23:26 -31.79482 150.23371 39140 ft 457 kts 29°
2026-05-06 23:26 -31.74286 150.27661 39145 ft 457 kts 29°
2026-05-06 23:27 -31.69083 150.31952 39149 ft 457 kts 29°
2026-05-06 23:27 -31.63835 150.36274 39145 ft 458 kts 29°
2026-05-06 23:28 -31.58617 150.40567 39147 ft 458 kts 29°
2026-05-06 23:28 -31.53430 150.44827 39143 ft 458 kts 29°
2026-05-06 23:29 -31.48203 150.49115 39142 ft 458 kts 29°
2026-05-06 23:29 -31.42972 150.53400 39149 ft 459 kts 29°
2026-05-06 23:30 -31.37743 150.57678 39156 ft 459 kts 29°
2026-05-06 23:30 -31.32504 150.61958 39153 ft 459 kts 29°
2026-05-06 23:31 -31.27255 150.66239 39156 ft 460 kts 29°
2026-05-06 23:31 -31.22002 150.70519 39155 ft 460 kts 28°
2026-05-06 23:32 -31.16750 150.74792 39155 ft 460 kts 28°
2026-05-06 23:32 -31.11489 150.79065 39153 ft 460 kts 28°
2026-05-06 23:33 -31.06275 150.83416 39145 ft 465 kts 35°
2026-05-06 23:33 -31.01426 150.88437 39156 ft 467 kts 36°
2026-05-06 23:34 -30.96585 150.93473 39156 ft 467 kts 36°
2026-05-06 23:34 -30.91738 150.98514 39155 ft 467 kts 36°
2026-05-06 23:35 -30.86892 151.03546 39160 ft 467 kts 36°
2026-05-06 23:35 -30.82858 151.07730 39152 ft 467 kts 36°
2026-05-06 23:36 -30.78003 151.12759 39148 ft 468 kts 36°
2026-05-06 23:36 -30.73172 151.17755 39151 ft 468 kts 36°
2026-05-06 23:37 -30.68306 151.22782 39146 ft 468 kts 35°
2026-05-06 23:37 -30.63433 151.27809 39140 ft 469 kts 35°
2026-05-06 23:38 -30.58556 151.32832 39129 ft 469 kts 35°
2026-05-06 23:38 -30.53681 151.37847 39128 ft 469 kts 35°
2026-05-06 23:39 -30.48806 151.42855 39134 ft 469 kts 35°
2026-05-06 23:39 -30.43921 151.47866 39120 ft 469 kts 35°
2026-05-06 23:40 -30.39042 151.52864 39115 ft 469 kts 35°
2026-05-06 23:40 -30.34148 151.57871 39107 ft 469 kts 35°
2026-05-06 23:41 -30.29289 151.62832 39105 ft 469 kts 35°
2026-05-06 23:41 -30.24391 151.67828 39107 ft 470 kts 35°
2026-05-06 23:42 -30.19492 151.72818 39101 ft 469 kts 34°
2026-05-06 23:42 -30.14586 151.77810 39098 ft 470 kts 34°
2026-05-06 23:43 -30.09686 151.82786 39091 ft 470 kts 34°
2026-05-06 23:43 -30.04775 151.87769 39084 ft 470 kts 34°
2026-05-06 23:44 -29.99864 151.92743 39084 ft 469 kts 34°
2026-05-06 23:44 -29.94955 151.97709 39080 ft 470 kts 34°
2026-05-06 23:45 -29.90041 152.02674 39068 ft 469 kts 34°
2026-05-06 23:45 -29.85128 152.07631 39074 ft 470 kts 34°
2026-05-06 23:46 -29.80225 152.12571 39072 ft 470 kts 34°
2026-05-06 23:46 -29.75311 152.17515 39072 ft 469 kts 34°
2026-05-06 23:47 -29.70390 152.22459 39059 ft 469 kts 34°
2026-05-06 23:47 -29.65469 152.27398 39069 ft 470 kts 34°
2026-05-06 23:48 -29.60579 152.32296 39062 ft 470 kts 34°
2026-05-06 23:48 -29.55654 152.37224 39063 ft 470 kts 34°
2026-05-06 23:49 -29.50724 152.42150 39065 ft 469 kts 34°
2026-05-06 23:49 -29.45794 152.47072 39056 ft 469 kts 34°
2026-05-06 23:50 -29.40864 152.51984 39071 ft 470 kts 34°
2026-05-06 23:50 -29.33466 152.59345 39084 ft 470 kts 34°
2026-05-06 23:51 -29.28528 152.64251 39069 ft 469 kts 34°
2026-05-06 23:51 -29.23594 152.69146 39075 ft 470 kts 34°
2026-05-06 23:52 -29.18655 152.74039 39072 ft 469 kts 34°
2026-05-06 23:52 -29.13716 152.78924 39060 ft 470 kts 34°
2026-05-06 23:53 -29.08772 152.83810 39057 ft 469 kts 34°
2026-05-06 23:53 -29.03832 152.88685 39066 ft 469 kts 34°
2026-05-06 23:54 -28.98888 152.93558 39063 ft 469 kts 33°
2026-05-06 23:54 -28.93941 152.98426 39063 ft 469 kts 33°
2026-05-06 23:55 -28.88992 153.03291 39064 ft 469 kts 33°
2026-05-06 23:55 -28.86402 153.05493 39062 ft 457 kts 22°
2026-05-06 23:55 -28.83631 153.07263 39065 ft 458 kts 22°
2026-05-06 23:56 -28.78107 153.10880 39062 ft 458 kts 22°
2026-05-06 23:56 -28.72574 153.14478 39054 ft 457 kts 22°
2026-05-06 23:57 -28.67045 153.18065 39053 ft 458 kts 22°
2026-05-06 23:57 -28.61520 153.21647 38633 ft 454 kts 22°
2026-05-06 23:58 -28.58761 153.23433 37834 ft 458 kts 22°
2026-05-06 23:58 -28.55982 153.25232 37103 ft 460 kts 22°
2026-05-06 23:58 -28.53215 153.27021 36578 ft 456 kts 22°
2026-05-06 23:58 -28.50477 153.28791 36164 ft 449 kts 22°
2026-05-06 23:59 -28.47773 153.30537 35687 ft 445 kts 22°
2026-05-06 23:59 -28.45086 153.32272 35139 ft 443 kts 22°
2026-05-06 23:59 -28.42410 153.33998 34602 ft 441 kts 22°
2026-05-06 23:59 -28.39747 153.35715 34081 ft 439 kts 22°
2026-05-07 00:00 -28.37104 153.37419 33575 ft 436 kts 22°
2026-05-07 00:00 -28.34477 153.39110 33093 ft 432 kts 22°
2026-05-07 00:00 -28.31871 153.40788 32607 ft 430 kts 23°
2026-05-07 00:00 -28.30149 153.41895 32287 ft 428 kts 23°
2026-05-07 00:01 -28.26699 153.44113 31642 ft 424 kts 23°
2026-05-07 00:01 -28.24142 153.45757 31172 ft 421 kts 23°
2026-05-07 00:01 -28.21604 153.47387 30709 ft 418 kts 23°
2026-05-07 00:01 -28.19115 153.48981 30238 ft 415 kts 22°
2026-05-07 00:02 -28.16447 153.50154 29696 ft 399 kts
2026-05-07 00:02 -28.13743 153.50302 29246 ft 384 kts 351°
2026-05-07 00:02 -28.11073 153.50286 28835 ft 382 kts 354°
2026-05-07 00:02 -28.08456 153.50291 28402 ft 380 kts 353°
2026-05-07 00:03 -28.05824 153.50279 27968 ft 377 kts 353°
2026-05-07 00:03 -28.03214 153.50258 27538 ft 374 kts 353°
2026-05-07 00:03 -28.00618 153.50233 27109 ft 372 kts 353°
2026-05-07 00:03 -27.98040 153.50206 26683 ft 370 kts 353°
2026-05-07 00:04 -27.95476 153.50178 26281 ft 367 kts 354°
2026-05-07 00:04 -27.92933 153.50151 25866 ft 365 kts 354°
2026-05-07 00:04 -27.90401 153.50124 25452 ft 362 kts 354°
2026-05-07 00:04 -27.87886 153.50097 25043 ft 360 kts 354°
2026-05-07 00:05 -27.85387 153.50070 24633 ft 358 kts 354°
2026-05-07 00:05 -27.82905 153.50044 24236 ft 356 kts 354°
2026-05-07 00:05 -27.80432 153.50018 23835 ft 354 kts 354°
2026-05-07 00:05 -27.77977 153.49991 23436 ft 352 kts 354°
2026-05-07 00:06 -27.75535 153.49964 23041 ft 350 kts 354°
2026-05-07 00:06 -27.73107 153.49938 22647 ft 348 kts 354°
2026-05-07 00:06 -27.70696 153.49913 22259 ft 345 kts 354°
2026-05-07 00:06 -27.68303 153.49887 21877 ft 343 kts 354°
2026-05-07 00:07 -27.65924 153.49862 21488 ft 341 kts 355°
2026-05-07 00:07 -27.63557 153.49837 21107 ft 339 kts 355°
2026-05-07 00:07 -27.61206 153.49812 20730 ft 337 kts 355°
2026-05-07 00:07 -27.58867 153.49787 20352 ft 335 kts 355°
2026-05-07 00:08 -27.56544 153.49762 19976 ft 333 kts 355°
2026-05-07 00:08 -27.54239 153.49737 19594 ft 330 kts 355°
2026-05-07 00:08 -27.51943 153.49715 19170 ft 330 kts 355°
2026-05-07 00:08 -27.49658 153.49694 18810 ft 327 kts 355°
2026-05-07 00:09 -27.47397 153.49673 18474 ft 324 kts 356°
2026-05-07 00:09 -27.45149 153.49652 18109 ft 322 kts 356°
2026-05-07 00:09 -27.42916 153.49632 17749 ft 320 kts 356°
2026-05-07 00:09 -27.40698 153.49611 17390 ft 318 kts 356°
2026-05-07 00:10 -27.38500 153.49591 17035 ft 315 kts 356°
2026-05-07 00:10 -27.36311 153.49570 16682 ft 313 kts 356°
2026-05-07 00:10 -27.34137 153.49550 16324 ft 311 kts 356°
2026-05-07 00:10 -27.31975 153.49530 15972 ft 309 kts 356°
2026-05-07 00:11 -27.29830 153.49511 15627 ft 307 kts 356°
2026-05-07 00:11 -27.27699 153.49491 15278 ft 305 kts 356°
2026-05-07 00:11 -27.25581 153.49471 14934 ft 303 kts 356°
2026-05-07 00:11 -27.23478 153.49452 14590 ft 301 kts 356°
2026-05-07 00:12 -27.21393 153.49432 14233 ft 299 kts 357°
2026-05-07 00:12 -27.19318 153.49413 13901 ft 297 kts 357°
2026-05-07 00:12 -27.17264 153.49394 13597 ft 294 kts 357°
2026-05-07 00:12 -27.15227 153.49375 13294 ft 291 kts 357°
2026-05-07 00:13 -27.13210 153.49357 12978 ft 289 kts 357°
2026-05-07 00:13 -27.11207 153.49338 12647 ft 287 kts 357°
2026-05-07 00:13 -27.09221 153.49320 12342 ft 285 kts 358°
2026-05-07 00:13 -27.07277 153.49302 12044 ft 282 kts 358°
2026-05-07 00:14 -27.05323 153.49284 11744 ft 279 kts 358°
2026-05-07 00:14 -27.03358 153.49266 11413 ft 278 kts 358°
2026-05-07 00:14 -27.01456 153.49248 11124 ft 276 kts 358°
2026-05-07 00:14 -26.99516 153.49231 10816 ft 274 kts 358°
2026-05-07 00:15 -26.97639 153.49213 10524 ft 272 kts 358°
2026-05-07 00:15 -26.95747 153.49196 10211 ft 271 kts 358°
2026-05-07 00:15 -26.93867 153.49178 9913 ft 270 kts 358°
2026-05-07 00:15 -26.91991 153.49160 9582 ft 270 kts 358°
2026-05-07 00:16 -26.90115 153.49144 9236 ft 270 kts 359°
2026-05-07 00:16 -26.88236 153.49127 8902 ft 270 kts 359°
2026-05-07 00:16 -26.86363 153.49109 8601 ft 269 kts 359°
2026-05-07 00:16 -26.84499 153.49092 8309 ft 267 kts 359°
2026-05-07 00:17 -26.82652 153.49075 8016 ft 264 kts 359°
2026-05-07 00:17 -26.80821 153.49058 7707 ft 263 kts 359°
2026-05-07 00:17 -26.78995 153.49042 7406 ft 261 kts 359°
2026-05-07 00:17 -26.77183 153.49025 7127 ft 260 kts 359°
2026-05-07 00:18 -26.75401 153.48779 6818 ft 260 kts 339°
2026-05-07 00:18 -26.73900 153.47681 6509 ft 260 kts 312°
2026-05-07 00:18 -26.72995 153.45955 6255 ft 258 kts 288°
2026-05-07 00:18 -26.72527 153.44037 6030 ft 253 kts 285°
2026-05-07 00:19 -26.72091 153.42142 5782 ft 250 kts 284°
2026-05-07 00:19 -26.71669 153.40263 5500 ft 249 kts 284°
2026-05-07 00:19 -26.71256 153.38390 5232 ft 247 kts 284°
2026-05-07 00:19 -26.70852 153.36540 5030 ft 242 kts 284°
2026-05-07 00:20 -26.70462 153.34734 4821 ft 237 kts 283°
2026-05-07 00:20 -26.70077 153.32939 4495 ft 238 kts 283°
2026-05-07 00:20 -26.69690 153.31137 4195 ft 238 kts 283°
2026-05-07 00:20 -26.69305 153.29350 3967 ft 234 kts 283°
2026-05-07 00:21 -26.69050 153.28153 3803 ft 233 kts 283°
2026-05-07 00:21 -26.68676 153.26400 3544 ft 231 kts 283°
2026-05-07 00:21 -26.68306 153.24669 3251 ft 232 kts 283°
2026-05-07 00:21 -26.67931 153.22915 2949 ft 231 kts 284°
2026-05-07 00:22 -26.67556 153.21166 2671 ft 231 kts 283°
2026-05-07 00:22 -26.67183 153.19428 2420 ft 229 kts 283°
2026-05-07 00:22 -26.66816 153.17713 2122 ft 224 kts 283°
2026-05-07 00:22 -26.66462 153.16065 1805 ft 209 kts 284°
2026-05-07 00:23 -26.65993 153.14607 1571 ft 189 kts 296°
2026-05-07 00:23 -26.65293 153.13467 1296 ft 169 kts 312°
2026-05-07 00:23 -26.64467 153.12682 1176 ft 147 kts 324°
2026-05-07 00:23 -26.63646 153.12015 1011 ft 145 kts 323°
2026-05-07 00:24 -26.62834 153.11340 839 ft 146 kts 322°
2026-05-07 00:24 -26.62035 153.10634 631 ft 147 kts 321°
2026-05-07 00:24 -26.61228 153.09945 378 ft 144 kts 322°
2026-05-07 00:24 -26.60452 153.09278 149 ft 138 kts 323°
2026-05-07 00:25 -26.59727 153.08658 28 ft 126 kts 323°
2026-05-07 00:25 -26.59105 153.08123 19 ft 96 kts 322°
2026-05-07 00:25 -26.58670 153.07750 19 ft 61 kts 322°
2026-05-07 00:25 -26.58463 153.07566 17 ft 13 kts 303°
2026-05-07 00:26 -26.58423 153.07458 14 ft 17 kts 300°
2026-05-07 00:26 -26.58365 153.07415 15 ft 7 kts 20°
2026-05-07 00:26 -26.58348 153.07463 16 ft 8 kts 104°
2026-05-07 00:26 -26.58396 153.07515 15 ft 12 kts 142°
2026-05-07 00:27 -26.58468 153.07578 17 ft 14 kts 142°
2026-05-07 00:27 -26.58552 153.07649 20 ft 16 kts 142°
2026-05-07 00:27 -26.58649 153.07732 21 ft 19 kts 142°
2026-05-07 00:27 -26.58760 153.07827 23 ft 21 kts 142°
2026-05-07 00:28 -26.58883 153.07932 23 ft 24 kts 142°
2026-05-07 00:28 -26.59025 153.08054 21 ft 27 kts 143°
2026-05-07 00:28 -26.59186 153.08192 18 ft 31 kts 142°
2026-05-07 00:28 -26.59298 153.08285 21 ft 10 kts 158°
2026-05-07 00:29 -26.59358 153.08260 20 ft 10 kts 230°
2026-05-07 00:29 -26.59407 153.08192 20 ft 11 kts 220°
2026-05-07 00:30 -26.59650 153.08358 23 ft 17 kts 142°
2026-05-07 00:30 -26.59754 153.08447 26 ft 20 kts 142°
2026-05-07 00:30 -26.59871 153.08548 26 ft 22 kts 142°
2026-05-07 00:30 -26.60000 153.08659 25 ft 26 kts 142°
2026-05-07 00:31 -26.60148 153.08786 26 ft 27 kts 142°
2026-05-07 00:31 -26.60291 153.08909 23 ft 24 kts 142°
2026-05-07 00:31 -26.60408 153.09009 26 ft 20 kts 142°
2026-05-07 00:31 -26.60487 153.09073 27 ft 9 kts 161°
2026-05-07 00:32 -26.60551 153.09062 28 ft 10 kts 193°
2026-05-07 00:32 -26.60602 153.09046 28 ft 4 kts 204°
2026-05-07 00:32 -26.60611 153.09002 27 ft 9 kts 282°
2026-05-07 00:32 -26.60599 153.08951 27 ft 2 kts 284°
2026-05-07 00:33 -26.60597 153.08939 27 ft 0 kts 284°